Theta_e
300 301 300 300 300 300 298 297 296 296 295 295 295 294 294 293 293 292 293 293 293 293 292 291 290 290 289 290 290 289 289 289 290 290 290 289 290 290 290 289 290 289 289 288 288 289 287 286 286 287 287 286 286 286 286 286 287 287 286 286 286 285 286 287 287 287 286 285 287 287 287 288 289 289 289 290 290 291 292 292 294 295 295 294 296
300 298 299 298 298 297 295 295 295 294 294 294 294 294 293 293 293 292 293 293 293 293 292 291 291 291 290 289 289 289 289 289 288 289 290 291 290 290 290 289 289 288 288 287 287 287 286 286 286 286 286 286 286 287 286 288 286 285 286 284 286 286 285 286 287 286 284 283 283 283 284 285 287 289 289 288 289 290 289 288 288 288 289 290 291
297 297 298 297 297 296 294 294 294 295 293 293 293 293 292 292 293 292 292 292 292 293 292 291 291 291 291 290 290 289 289 289 289 289 290 289 289 289 289 289 289 288 288 288 287 287 286 285 285 285 286 286 285 285 285 285 285 285 285 285 284 285 285 287 286 286 283 284 284 283 280 280 284 285 287 287 287 288 288 288 288 288 290 291 291
295 296 295 295 295 294 293 292 293 293 292 292 293 292 292 292 292 292 292 292 292 292 292 291 291 291 291 291 291 289 288 290 289 289 289 289 288 289 289 289 288 288 288 287 287 286 285 285 285 285 285 286 286 285 284 284 284 284 285 285 285 283 283 283 286 286 285 284 279 280 280 280 278 281 282 285 287 287 287 287 288 290 289 288 289
295 295 294 293 293 293 293 292 293 292 292 292 292 292 293 292 293 292 292 292 292 293 292 291 292 290 290 289 289 288 288 287 287 286 287 288 288 288 288 288 288 287 287 287 286 286 286 285 285 284 285 285 285 285 284 284 284 284 285 285 284 283 282 283 284 285 285 286 284 281 278 278 277 280 283 283 285 285 286 287 287 287 287 288 290
297 295 294 294 293 292 291 291 292 292 292 292 293 293 292 292 292 292 292 291 291 291 291 292 291 289 288 286 285 285 284 285 285 285 286 286 286 287 288 288 288 287 286 286 286 286 285 285 284 284 284 285 285 285 284 284 284 284 284 284 284 284 283 282 282 284 285 286 286 285 283 279 279 282 281 278 284 285 285 285 286 287 287 288 289
297 296 294 293 293 292 291 291 292 292 292 292 292 292 292 292 292 292 291 291 291 291 291 291 290 289 288 287 287 286 285 285 286 286 286 287 287 287 287 287 287 286 286 285 285 285 285 284 284 284 284 284 285 284 283 283 284 283 285 284 284 286 284 281 281 281 283 284 285 286 286 286 285 282 279 281 278 282 283 284 285 286 287 287 288
298 296 295 294 293 292 291 292 292 292 292 292 292 292 291 292 292 291 291 291 291 291 291 291 290 289 288 287 287 286 285 285 286 286 287 287 286 286 286 286 286 286 286 285 285 285 285 284 284 284 284 283 284 283 283 283 284 285 284 284 284 283 282 281 281 281 280 281 284 283 283 284 283 283 283 281 280 278 280 283 285 284 285 285 287
298 296 294 293 293 293 292 291 292 292 292 292 292 292 291 291 291 291 291 290 290 291 291 290 290 289 288 287 286 286 286 287 287 287 287 286 285 285 285 285 285 285 285 285 284 285 285 283 283 283 283 283 283 284 283 283 283 282 282 282 282 283 282 283 282 281 281 281 281 280 281 281 281 282 282 282 279 278 278 279 281 283 284 284 285
297 297 295 294 294 293 293 292 291 291 292 292 291 291 291 291 291 290 290 290 290 290 290 289 289 289 287 287 286 286 287 286 286 285 284 284 284 284 284 284 284 284 284 284 284 284 283 283 283 282 282 282 283 282 282 282 282 282 282 282 282 282 283 282 282 282 282 282 281 281 279 279 279 279 279 279 280 280 278 278 280 279 278 281 283
296 296 295 294 293 292 291 290 290 290 291 291 291 291 290 291 290 290 290 289 289 289 289 289 288 288 287 287 286 286 286 286 285 284 284 283 283 283 283 283 283 283 284 284 284 284 283 283 282 282 282 282 282 281 281 281 281 281 282 282 282 282 281 282 283 283 282 281 281 280 279 279 278 277 278 278 278 277 277 278 279 280 279 279 281
296 295 293 292 290 290 289 289 289 289 289 290 290 290 290 290 290 289 288 288 288 288 288 287 287 287 287 287 287 287 286 285 284 284 284 283 283 283 283 283 283 283 283 282 282 283 283 282 282 282 281 281 281 281 281 281 282 281 281 281 280 281 281 281 280 280 280 280 280 280 280 280 280 279 279 280 279 278 278 277 278 279 279 279 281
295 294 293 291 290 289 288 288 287 287 289 289 289 289 289 289 288 288 287 287 287 287 287 286 286 286 286 286 286 287 286 285 284 284 284 283 283 282 282 282 282 282 281 281 281 282 282 281 281 280 280 281 281 281 281 281 280 280 280 280 280 279 280 280 279 279 279 278 278 279 279 279 279 280 280 279 280 280 278 277 278 279 277 277 279
295 294 293 292 291 290 289 288 288 288 288 288 288 289 289 289 288 288 288 287 287 287 286 286 286 286 285 285 286 286 285 284 284 284 284 283 283 282 282 282 281 281 281 281 282 282 281 281 281 280 280 279 280 279 279 280 280 279 279 279 279 279 279 279 278 279 279 279 279 278 278 279 279 280 280 279 278 278 277 276 276 277 277 276 278
294 293 292 292 291 289 289 288 288 287 287 288 288 288 288 288 288 288 287 287 287 286 286 285 285 285 285 285 285 285 285 284 283 284 283 282 282 281 281 281 280 281 281 281 282 281 280 280 280 279 279 279 279 279 281 279 279 280 280 279 279 279 278 279 278 278 279 278 278 278 278 278 278 279 279 279 279 278 278 277 276 274 275 276 275
291 291 290 289 289 287 287 287 287 287 287 287 287 288 288 288 288 288 288 287 287 286 286 286 285 285 284 284 284 284 284 283 283 283 282 282 281 281 280 280 280 280 281 281 281 280 280 279 279 279 279 279 279 279 278 278 278 277 277 278 277 280 278 277 278 278 278 278 278 279 278 278 278 278 279 279 279 279 278 278 277 276 274 272 275
290 291 290 289 287 287 288 287 287 287 286 287 287 288 288 288 287 287 287 287 286 286 286 285 285 284 284 284 284 284 283 283 282 282 281 281 281 280 280 280 280 279 280 280 279 279 279 279 278 278 279 278 278 278 277 277 277 277 277 276 276 276 277 277 277 277 278 278 278 278 278 278 278 278 278 279 278 278 278 278 278 276 276 274 272
289 289 288 289 289 289 288 287 287 287 287 287 287 287 288 288 287 287 287 286 286 286 285 285 284 284 283 284 284 284 283 283 282 281 281 280 280 279 279 279 279 279 280 280 279 278 278 279 277 277 277 277 277 277 277 276 276 276 276 276 276 276 276 276 277 277 277 277 278 278 278 278 278 278 278 278 278 278 278 278 278 278 278 275 275
289 289 289 289 289 289 289 288 287 287 287 286 287 287 287 287 287 287 286 287 286 286 285 285 285 285 284 284 283 283 282 282 281 281 280 280 279 279 278 278 278 278 279 278 278 277 277 277 277 276 277 277 276 276 276 276 276 275 275 276 275 275 275 275 276 276 277 277 276 276 277 277 277 277 277 278 278 278 278 278 278 278 278 278 276
289 288 289 289 289 289 289 288 287 287 286 286 286 286 286 287 286 286 286 286 285 285 285 284 284 284 284 283 282 282 282 281 280 280 279 279 279 278 277 277 278 278 277 277 277 276 276 276 276 276 276 276 275 275 275 275 275 275 275 275 275 274 274 274 274 275 276 276 275 275 276 276 277 277 277 277 277 278 278 278 278 278 278 278 277
289 289 288 289 288 288 287 287 287 285 284 285 285 286 286 286 286 286 286 285 285 285 285 285 284 284 283 282 282 281 280 280 279 279 279 278 278 278 277 277 277 277 276 276 276 276 276 276 275 276 275 274 274 274 274 274 274 274 274 273 273 273 273 274 274 274 274 274 274 274 274 275 275 275 275 275 276 276 276 276 277 276 276 276 276
290 290 289 288 287 287 286 285 285 285 285 285 285 284 284 285 286 286 286 285 285 284 285 284 284 283 283 282 281 280 280 279 278 278 277 277 277 277 276 276 276 276 276 275 275 275 275 275 274 274 274 274 274 274 273 273 273 273 273 274 273 272 272 272 272 272 272 273 273 273 273 273 273 273 273 273 273 273 273 273 273 274 274 275 276
291 291 290 289 288 288 287 286 286 286 286 285 284 285 285 285 285 285 286 285 285 285 285 284 283 283 282 281 280 279 279 278 277 277 277 277 277 276 276 276 275 275 275 275 275 275 274 274 274 274 274 273 273 273 273 273 273 272 272 271 272 271 271 271 271 271 271 271 271 271 271 271 271 271 271 271 272 271 272 271 271 272 272 272 272
289 290 290 290 288 286 286 285 286 285 285 285 285 285 285 285 285 285 285 285 284 284 284 283 283 282 282 281 280 279 278 278 277 277 276 276 276 276 276 276 275 275 275 275 275 274 274 274 274 273 273 273 273 273 272 272 272 271 271 271 270 270 270 270 270 270 270 270 269 269 269 270 270 269 269 270 270 270 270 270 270 271 271 270 271
289 289 290 287 286 286 287 286 286 286 285 284 284 284 284 285 285 285 285 285 284 284 283 283 282 281 281 280 279 278 277 277 277 277 276 276 276 276 276 275 275 275 275 274 274 274 274 274 273 273 273 272 272 272 272 271 271 270 270 270 270 270 270 270 269 269 271 270 269 269 269 269 269 268 268 269 269 269 269 269 269 270 270 270 270
292 290 287 287 288 288 286 285 285 285 285 285 284 284 284 284 284 284 284 283 283 283 283 282 281 281 280 279 278 278 277 277 277 276 276 276 276 275 275 275 275 274 274 274 274 274 274 273 273 272 272 271 271 270 270 269 269 269 269 269 269 269 269 269 269 269 269 269 269 268 269 269 268 268 268 268 268 268 269 269 269 269 270 270 270
291 289 288 286 284 285 285 285 286 285 284 285 284 284 284 283 283 283 284 283 283 282 282 281 281 280 279 279 278 277 277 277 277 276 276 276 276 275 275 274 275 274 274 273 273 273 272 272 271 271 271 271 270 270 269 269 269 269 269 269 269 269 269 269 269 269 269 269 269 269 269 269 269 269 268 268 269 269 269 269 270 270 270 270 270
287 287 287 287 287 285 285 285 285 285 285 284 284 284 284 283 283 283 283 283 283 282 281 280 280 279 279 278 278 277 277 277 277 276 276 276 275 275 275 274 274 274 273 273 272 272 271 271 271 271 271 271 270 270 269 269 269 269 268 268 268 268 269 269 269 270 270 271 271 271 270 270 270 270 270 270 270 270 270 270 270 270 270 270 269
289 290 289 288 287 286 286 286 285 285 284 284 284 283 283 283 283 283 283 282 282 281 280 280 279 279 279 278 278 277 277 277 276 276 275 275 275 275 275 275 274 273 273 272 272 272 271 271 271 271 271 271 270 270 270 269 269 269 268 268 268 269 269 270 270 271 271 272 272 272 272 272 272 274 275 276 276 276 273 272 272 271 269 269 269
289 290 290 289 289 289 288 287 286 285 284 284 284 283 283 283 283 283 283 282 281 281 280 279 279 279 278 278 277 277 277 276 276 275 275 275 275 275 274 273 273 272 271 271 271 271 270 270 270 270 270 270 270 270 271 273 273 269 269 269 270 270 270 271 271 271 272 272 272 272 273 275 276 276 276 277 277 278 278 276 274 274 273 273 271
288 289 290 290 291 290 289 287 286 285 285 285 285 284 284 283 283 282 282 282 281 280 280 279 279 278 278 277 277 276 276 276 275 275 274 274 274 273 272 271 270 270 269 270 270 269 269 269 269 269 269 270 270 270 273 274 275 276 274 272 272 272 272 272 272 272 272 272 272 273 273 274 274 275 274 276 277 277 278 278 278 278 278 274 272
293 291 290 290 290 290 290 289 288 287 286 285 285 284 283 283 283 282 282 281 280 280 279 279 278 278 277 277 276 276 275 275 274 274 273 272 271 271 270 269 269 268 269 269 268 268 269 269 269 269 269 270 270 272 274 275 276 276 276 274 273 273 273 273 273 272 272 272 272 272 273 273 272 273 273 273 275 277 278 278 278 278 278 279 278
293 292 291 291 291 290 290 290 290 289 287 286 286 284 283 283 283 282 281 280 280 279 279 278 278 277 277 276 276 275 274 274 274 273 272 270 270 270 269 268 268 268 268 267 268 268 268 269 269 269 269 269 269 272 274 275 275 276 276 276 274 274 273 273 273 273 272 272 272 272 272 272 272 275 274 274 273 273 276 277 278 278 278 278 279
291 291 291 290 290 290 290 289 290 290 290 289 287 286 285 284 283 281 280 280 279 279 278 278 277 277 276 276 275 274 273 273 272 271 270 269 268 268 268 268 268 268 267 267 268 268 268 269 269 269 269 269 269 271 273 274 275 276 276 276 274 274 274 273 273 272 271 271 271 271 271 271 273 273 273 273 274 273 273 274 274 274 273 275 277
294 292 291 291 291 291 290 289 288 289 288 285 284 284 282 282 281 280 280 279 279 278 277 277 276 276 276 275 275 274 272 271 270 269 268 267 267 267 267 267 267 267 267 267 267 267 268 268 269 269 268 268 268 271 273 274 275 276 276 276 274 274 273 272 272 272 272 272 272 272 272 272 273 273 273 274 274 274 275 275 274 274 274 274 274
295 293 292 292 290 291 291 291 288 286 285 285 285 283 283 282 280 280 279 278 278 277 277 277 276 276 275 275 274 273 270 269 268 267 267 267 267 267 267 267 267 267 268 268 268 268 268 268 268 267 267 267 267 271 272 274 274 275 276 274 273 272 272 271 271 272 272 272 273 273 272 272 273 273 276 278 278 277 275 274 273 273 273 274 274
295 294 293 293 290 290 290 287 284 285 284 285 284 283 282 280 279 279 278 278 277 277 277 276 276 275 275 274 274 271 269 268 267 267 267 266 266 266 267 267 267 267 267 267 267 268 268 267 267 267 266 266 266 269 271 273 274 275 275 273 272 272 272 271 271 272 272 272 273 273 273 274 274 274 277 279 279 278 275 273 273 272 272 272 272
294 294 293 291 289 289 287 287 285 284 285 284 283 282 281 279 279 278 278 277 277 277 277 276 276 275 274 273 273 270 269 268 267 266 266 267 267 267 266 267 267 267 267 267 267 267 267 267 267 266 267 266 266 268 271 272 274 274 274 273 272 272 271 271 271 272 272 273 274 276 276 275 274 274 277 278 279 277 274 273 273 272 271 271 272
294 294 294 290 289 288 286 284 284 284 283 283 282 281 280 279 278 277 277 277 276 277 276 276 275 274 273 272 271 270 269 268 267 267 267 266 266 266 267 267 267 267 267 267 267 266 266 267 267 267 268 267 266 268 271 272 273 274 274 273 272 271 271 271 271 272 273 273 274 275 276 276 275 275 277 278 278 277 274 273 273 272 271 271 272
291 291 291 290 287 285 283 284 284 284 283 282 281 281 280 278 277 277 276 276 277 277 276 275 274 273 272 271 270 269 268 267 267 267 267 267 267 266 266 266 266 266 266 266 266 266 265 266 266 266 266 267 267 267 268 272 273 274 275 273 272 271 270 271 272 272 272 273 274 273 274 275 276 276 277 278 279 279 275 274 273 272 270 270 272
290 290 288 287 286 288 287 286 286 283 282 281 281 280 279 278 277 276 276 277 277 276 275 274 273 272 271 270 269 269 268 267 267 266 267 266 266 266 265 265 265 265 265 266 266 265 265 265 265 266 266 266 267 267 268 272 273 274 275 274 272 272 272 272 272 273 273 272 271 271 271 273 275 276 278 278 278 278 277 274 272 270 271 272 276
286 287 287 286 284 285 284 283 283 282 281 281 280 280 279 277 276 276 277 276 276 275 274 272 271 270 269 269 268 268 268 266 266 266 265 265 266 266 265 265 265 265 265 264 264 264 264 264 265 266 267 267 269 271 269 271 272 273 274 275 273 273 274 273 272 272 272 271 270 270 270 272 276 277 277 277 277 277 276 272 271 275 277 277 273
287 285 285 285 283 284 284 284 282 281 281 281 280 279 278 277 276 276 276 275 274 273 272 271 270 269 268 267 267 266 266 265 265 265 265 265 265 264 264 264 264 264 264 263 263 263 264 265 266 266 267 268 269 269 271 270 272 273 274 275 276 275 276 274 272 271 270 269 270 270 271 274 276 276 275 276 276 276 273 271 275 276 276 276 274
286 285 284 284 284 283 283 282 279 279 279 280 280 279 278 276 276 275 274 273 272 272 270 269 269 269 267 266 265 264 264 264 264 265 264 264 263 263 263 263 264 263 263 262 263 264 265 265 265 266 267 268 268 268 270 271 271 273 274 275 276 276 276 274 273 271 270 270 270 271 272 275 274 274 274 274 274 273 271 274 275 275 275 273 269
284 285 284 284 283 282 281 279 277 276 276 277 278 279 277 276 276 274 274 272 271 270 269 268 268 267 266 265 264 264 263 264 264 264 263 262 262 262 262 263 263 263 263 263 264 265 264 264 265 265 266 267 268 268 268 270 272 273 274 275 275 275 275 275 271 270 270 270 273 274 274 273 273 273 273 272 270 270 272 273 273 273 272 268 267
282 282 280 280 279 279 279 278 275 275 276 277 277 278 277 277 275 274 273 272 270 269 268 267 266 266 264 263 263 263 263 263 264 264 264 263 262 262 263 262 263 264 264 264 264 264 264 265 265 266 266 266 267 267 268 269 270 271 272 273 274 274 273 273 272 270 273 273 272 271 271 271 270 269 267 266 266 267 271 271 271 271 267 267 267
285 283 281 279 277 279 279 279 280 276 276 276 277 277 278 275 273 273 273 271 269 269 268 266 265 264 263 262 262 262 262 263 263 264 264 263 263 264 263 263 263 264 264 264 264 264 264 265 264 265 266 266 266 267 268 269 269 270 271 272 272 271 272 272 270 270 270 266 266 267 267 269 268 270 269 269 268 268 266 266 266 266 266 266 267
285 283 280 279 279 280 280 279 279 278 276 276 276 276 276 274 273 273 271 270 269 268 267 265 263 262 262 262 262 262 262 262 263 263 263 263 264 265 264 263 264 264 264 264 264 264 265 265 265 265 265 265 266 266 267 268 269 271 271 271 271 271 270 269 269 270 267 265 264 266 265 263 264 263 263 263 263 263 264 264 264 265 265 267 268
287 282 280 281 281 281 281 280 281 280 277 275 276 276 274 273 273 271 270 269 268 267 265 264 263 262 262 262 262 262 262 262 263 263 264 264 264 265 265 265 266 266 265 265 264 265 266 266 266 265 265 265 265 266 267 271 272 273 272 271 270 270 269 269 270 271 265 262 260 261 260 261 261 261 261 261 261 262 262 263 263 264 265 265 266
289 287 284 282 282 282 282 281 282 280 276 275 275 275 273 272 271 271 270 269 267 266 264 263 262 262 262 262 261 261 262 262 263 263 263 263 266 268 267 265 265 269 270 270 269 267 267 267 266 267 267 265 266 267 272 273 272 272 273 273 272 272 272 271 271 269 265 258 258 258 259 259 260 260 260 260 260 261 261 262 262 265 264 264 265
289 288 285 283 282 281 281 281 281 278 276 276 275 275 271 270 270 270 270 269 267 265 264 263 262 262 263 262 262 261 262 262 263 263 263 263 264 267 270 270 269 270 271 272 271 271 272 271 268 266 268 271 271 272 272 272 272 272 272 272 271 271 271 271 270 265 259 257 257 257 258 258 259 259 259 260 260 261 261 261 262 263 263 264 265
Wind_Speed
7 12 13 12 12 10 8 8 8 9 10 12 13 12 12 13 13 13 11 12 11 11 10 10 10 8 6 8 8 7 7 6 6 6 6 6 7 6 5 4 5 5 4 4 4 4 3 3 2 2 2 2 1 2 2 1 2 2 4 3 4 6 6 4 4 4 8 9 6 7 9 9 12 12 13 10 8 8 7 6 6 6 5 7 7
7 6 8 8 8 8 8 8 9 13 9 12 14 13 13 13 14 13 11 11 12 12 11 10 10 11 11 10 8 8 8 8 7 6 7 6 7 5 5 4 5 4 4 4 4 4 3 3 3 2 2 1 1 1 1 1 3 4 3 4 2 3 5 5 7 7 4 5 11 12 9 6 8 9 11 4 4 5 7 8 8 9 9 8 6
6 8 8 9 9 9 9 8 9 12 12 14 13 13 14 13 12 13 12 12 12 12 11 11 9 8 9 8 10 6 4 6 6 6 6 7 6 6 5 5 6 5 4 4 3 4 4 3 3 2 1 1 0 1 1 2 2 3 3 3 5 2 4 4 6 3 5 6 8 9 6 12 4 5 2 5 12 10 11 11 10 8 10 6 6
10 11 11 9 10 10 9 9 10 10 11 11 13 14 13 13 13 14 13 12 12 12 11 10 10 8 8 8 8 7 7 6 6 6 7 7 7 6 5 7 6 6 6 5 4 4 4 4 3 2 1 1 0 1 2 3 3 3 3 3 2 5 3 3 3 5 4 7 7 2 10 6 10 0 8 11 10 11 8 8 5 5 8 11 10
10 8 9 10 11 13 13 11 11 12 12 13 14 15 12 16 16 16 14 14 12 12 13 10 9 8 7 8 7 8 6 7 7 6 7 7 7 7 7 6 7 6 6 5 5 5 4 3 3 2 2 1 0 1 2 4 4 3 3 3 2 3 5 3 3 2 4 4 4 6 5 3 3 11 15 12 6 1 5 8 8 11 10 7 6
14 14 15 14 12 9 9 11 13 12 13 13 14 15 13 14 14 14 11 11 12 13 14 11 12 12 12 11 10 8 8 9 11 12 10 9 9 7 7 7 7 6 6 5 4 4 4 3 3 2 2 2 3 4 3 3 3 3 3 3 4 3 4 4 5 3 4 4 4 5 5 6 11 8 4 11 7 8 12 5 6 4 4 7 7
7 8 9 11 11 11 11 13 14 14 13 11 12 13 13 13 13 14 13 11 11 12 13 11 12 11 14 14 13 14 13 9 6 6 8 7 7 9 8 7 7 7 6 5 5 4 4 4 3 3 2 2 2 3 3 3 3 3 3 3 3 2 1 3 4 5 4 4 5 5 6 6 6 7 7 10 19 10 7 3 4 2 5 6 7
13 12 13 13 14 16 18 17 14 16 13 12 12 12 14 14 14 14 11 11 10 12 13 13 13 12 12 11 10 10 11 11 11 9 8 8 9 9 8 7 7 7 7 6 6 5 5 4 4 3 3 3 3 4 4 3 2 2 2 3 2 2 3 5 5 4 5 4 3 6 6 5 5 5 5 7 11 16 25 4 6 6 7 4 7
13 12 13 14 16 16 14 14 14 11 11 14 14 13 12 12 13 12 12 12 11 13 13 13 12 13 12 11 10 7 8 8 7 7 9 9 9 8 8 7 7 7 7 7 6 6 5 5 4 4 3 3 3 3 3 3 3 3 3 3 3 3 3 3 3 4 3 5 4 3 4 4 5 4 6 7 6 12 19 18 18 6 6 9 10
9 12 13 14 14 13 13 10 10 13 11 10 9 10 11 11 13 14 14 13 12 14 13 13 12 11 12 11 11 9 8 7 8 9 8 8 9 8 7 7 7 7 7 6 6 6 5 5 4 4 3 3 3 3 3 3 4 4 4 4 4 4 3 3 4 5 4 4 3 4 3 3 4 3 4 4 6 6 12 20 18 20 22 14 4
9 9 10 11 10 9 9 12 13 10 10 11 12 12 12 13 14 15 14 11 12 14 14 15 12 12 12 13 13 12 11 11 10 9 8 7 8 8 8 7 7 7 7 6 6 6 5 5 5 4 4 3 3 3 3 3 4 4 5 4 3 4 3 4 5 4 4 4 5 5 5 5 5 5 6 5 6 7 10 15 16 16 17 21 17
10 9 9 9 8 9 10 11 12 12 10 12 12 12 13 13 13 14 12 13 11 13 13 14 13 12 11 12 13 12 13 12 13 13 12 11 10 9 7 7 7 7 7 7 7 6 6 5 4 4 3 3 4 4 3 4 4 3 2 2 2 3 3 3 3 4 5 5 5 5 6 5 5 7 6 6 6 8 9 13 14 15 18 16 12
11 10 10 10 12 14 14 12 11 13 15 15 15 14 13 13 14 16 15 13 14 14 15 14 13 12 12 12 11 11 12 12 12 12 11 11 10 9 9 8 7 7 7 7 7 7 6 6 5 5 4 5 5 4 4 2 1 1 2 3 3 3 4 4 5 6 6 6 6 4 5 5 6 5 6 6 5 6 7 12 14 11 15 19 19
11 11 12 13 13 13 14 14 14 14 14 15 14 14 13 13 15 17 17 14 12 14 15 15 14 12 11 11 11 10 11 11 10 11 10 9 9 10 10 9 9 9 8 8 7 7 6 6 5 5 4 3 2 2 2 2 3 3 3 4 4 4 3 4 5 5 5 6 5 6 6 7 7 7 8 7 8 7 9 10 13 12 12 16 16
7 10 11 12 12 12 14 15 14 15 15 15 13 14 14 14 15 17 15 15 15 16 14 16 14 13 12 11 11 9 11 10 9 9 10 10 9 9 8 8 8 8 8 7 7 7 6 6 5 4 4 4 4 3 3 3 3 3 4 4 5 4 4 5 5 5 6 6 6 6 7 6 7 7 7 7 6 8 8 9 8 14 16 15 16
7 8 8 8 8 7 7 10 12 12 14 13 14 14 15 16 17 19 21 19 17 16 16 16 14 12 12 13 13 11 9 9 8 8 8 9 10 10 9 8 8 8 7 7 6 7 6 6 4 4 4 4 4 3 3 3 3 3 3 4 5 3 3 4 5 4 6 6 7 7 7 8 8 8 7 8 7 7 8 7 8 9 12 19 17
7 8 9 8 7 8 9 9 10 10 12 16 17 18 19 18 16 17 16 13 16 17 17 15 14 13 14 13 12 12 13 13 12 11 11 9 9 9 9 8 7 7 7 7 7 6 6 6 5 5 4 4 3 3 3 3 3 3 3 3 4 3 3 5 4 5 5 6 6 7 8 8 8 7 7 7 7 7 7 8 8 9 9 12 15
7 7 7 8 8 9 9 9 10 12 14 15 17 16 16 16 17 19 17 18 17 16 16 16 16 15 14 15 14 14 13 12 11 12 10 10 8 8 8 8 8 8 7 7 7 7 6 6 5 4 3 3 3 3 3 3 3 3 3 4 3 3 4 4 4 4 7 6 7 8 7 8 7 6 6 6 6 7 8 8 9 9 10 13 14
7 8 9 9 10 12 13 14 11 10 10 11 11 12 12 13 14 15 19 21 19 16 14 12 13 12 12 14 15 13 12 11 10 10 10 11 11 10 10 9 8 8 8 8 7 7 6 5 5 4 4 5 4 4 3 3 3 3 3 4 3 3 4 5 4 5 6 5 7 8 8 9 8 8 8 8 7 8 9 9 9 10 11 13 14
8 9 10 12 13 14 14 14 14 14 13 12 12 11 13 14 13 14 13 10 11 14 15 16 16 13 12 11 12 11 11 12 12 13 11 12 11 11 10 9 10 8 7 7 7 6 6 6 5 6 5 5 4 3 3 3 3 3 3 4 3 3 3 4 4 4 5 6 7 9 8 8 8 7 8 7 7 8 9 9 9 10 12 12 12
8 9 9 10 11 9 9 9 8 7 6 7 9 13 13 11 14 15 17 17 17 17 15 15 13 15 14 16 15 13 13 11 11 12 12 11 10 10 10 9 8 8 8 8 7 7 6 7 6 5 5 4 4 3 3 3 3 3 3 3 3 3 4 5 5 7 6 7 7 9 9 9 8 9 8 8 8 8 9 9 9 10 12 13 14
8 9 9 9 9 9 6 5 5 7 9 11 11 8 9 12 13 13 13 14 16 15 17 16 15 14 16 15 14 11 12 11 12 12 12 11 11 10 10 9 9 8 8 8 7 6 6 6 5 5 5 4 4 4 3 3 3 3 3 3 4 3 4 5 5 7 6 5 7 9 10 9 7 8 8 9 8 8 8 10 11 13 14 13 10
9 9 9 10 10 11 12 12 12 12 10 10 10 13 15 14 13 13 16 17 17 17 15 13 14 15 16 14 13 13 13 13 13 12 12 11 11 10 10 11 9 8 7 7 7 7 6 6 5 5 4 4 4 4 3 3 3 3 4 3 3 3 4 5 6 7 7 6 8 9 10 8 7 9 9 9 9 10 9 11 13 11 13 13 13
7 7 6 9 8 6 6 9 12 13 13 15 14 11 11 12 14 14 17 18 15 14 14 14 14 14 14 14 15 13 14 14 14 12 13 11 11 10 9 9 9 8 8 7 6 6 6 5 5 5 4 4 4 3 3 3 3 3 3 4 3 3 4 5 6 7 6 7 8 9 9 8 8 10 10 9 9 9 10 10 12 12 12 15 13
7 7 9 6 5 9 13 13 13 13 12 11 12 14 14 15 14 16 16 14 12 12 13 15 14 15 14 15 15 14 15 14 14 12 13 12 11 10 9 9 9 8 7 7 5 5 5 5 6 5 4 4 4 4 3 3 2 2 3 3 4 4 4 5 6 7 7 8 8 9 9 8 8 10 10 10 10 11 11 11 12 12 11 15 14
10 8 4 8 12 11 9 9 10 10 12 12 12 11 12 11 13 12 11 11 13 12 13 13 13 15 15 16 15 14 16 16 14 13 13 12 11 10 9 7 8 8 6 6 6 5 6 5 4 4 4 3 3 3 3 3 3 3 3 3 4 4 5 6 6 7 7 8 9 9 9 9 9 10 11 11 11 13 12 13 14 14 14 13 14
10 9 8 5 5 8 11 11 12 11 10 11 13 14 12 12 12 11 11 11 11 10 11 12 12 14 13 15 15 16 14 14 13 12 11 10 10 10 10 9 8 8 8 7 5 5 4 5 3 3 3 3 3 3 3 3 3 3 4 4 4 5 6 6 6 7 8 9 9 9 10 10 11 12 12 12 12 14 13 15 15 15 15 14 17
6 6 8 10 11 9 9 11 12 12 12 11 12 13 13 14 14 12 10 10 9 11 12 12 12 13 14 15 14 12 12 11 10 10 11 10 10 10 9 8 8 8 8 7 6 6 3 3 3 2 2 2 3 3 3 4 4 4 4 4 4 5 6 6 7 9 10 11 12 12 12 12 12 12 12 13 13 13 13 17 15 15 14 17 14
9 11 11 10 10 9 11 13 13 12 12 13 12 11 11 10 10 11 12 13 11 12 12 12 13 14 14 13 11 10 10 10 10 10 11 10 10 10 10 9 8 7 6 6 6 5 5 3 3 3 3 3 3 4 4 4 4 5 4 4 5 6 7 9 10 11 11 12 12 12 13 12 13 18 23 22 21 20 13 12 10 10 12 14 14
12 12 12 11 12 12 14 14 13 13 14 13 12 13 14 15 14 13 13 11 12 14 15 14 14 13 11 11 11 10 11 11 11 11 11 11 10 10 10 9 8 8 7 6 6 4 4 4 4 5 5 5 5 5 7 13 10 6 4 4 5 7 9 9 10 12 13 13 13 12 12 20 21 22 23 24 25 26 27 21 17 14 14 13 12
11 12 13 12 14 15 14 12 13 13 15 15 15 14 13 12 11 12 13 13 13 13 13 13 13 11 11 11 12 12 12 12 11 11 10 11 11 10 10 10 9 8 7 7 6 6 5 5 5 5 6 6 6 5 11 12 12 12 8 6 7 7 8 10 10 10 10 12 12 13 12 14 17 19 19 25 25 26 27 29 30 29 25 19 16
16 13 12 13 13 14 14 14 14 15 15 13 12 11 11 14 13 13 12 11 12 12 13 13 12 11 13 14 13 12 13 12 12 12 12 11 11 11 10 11 10 9 6 5 6 6 6 6 5 6 6 6 5 8 12 12 12 12 11 7 7 7 7 8 10 10 12 11 13 13 12 10 11 14 15 15 20 27 29 30 31 31 30 31 28
17 12 11 12 12 13 14 14 13 13 13 14 15 12 13 14 14 12 11 13 13 13 13 12 12 13 14 14 13 14 14 13 13 13 12 12 12 12 12 10 8 6 6 6 6 7 6 6 6 6 6 6 6 9 12 12 12 12 13 11 7 7 8 7 9 11 12 12 12 12 13 12 11 23 19 16 17 18 23 30 32 33 32 33 32
10 10 9 9 10 9 10 11 12 14 15 15 14 16 15 11 11 11 14 13 14 13 13 13 12 13 14 14 14 14 14 13 13 13 13 14 14 11 7 7 7 7 7 7 6 6 5 6 6 6 5 5 6 8 12 12 11 12 13 12 7 8 7 6 9 11 11 12 13 12 12 13 13 12 13 15 17 18 17 17 16 14 13 20 28
13 11 8 8 9 10 9 9 9 11 9 7 9 9 8 10 12 13 13 14 12 13 12 13 13 13 13 13 14 14 14 13 13 13 13 14 14 10 10 9 9 9 9 8 8 8 7 6 5 5 4 5 5 10 11 12 12 12 13 12 6 5 7 8 9 12 12 12 13 14 15 15 16 15 14 18 18 16 16 15 16 17 15 11 11
14 10 9 10 9 11 11 12 8 6 8 10 12 11 12 12 12 14 13 13 13 13 13 13 14 14 15 15 16 15 14 14 13 13 13 11 9 9 11 9 8 7 7 6 6 7 7 7 6 4 4 6 6 11 12 11 12 11 13 7 5 7 7 8 9 11 11 12 14 14 15 17 17 14 19 26 22 19 18 19 19 18 17 15 14
15 12 12 11 9 9 11 7 6 9 10 11 10 12 12 12 12 12 14 13 14 14 15 16 15 15 16 16 16 16 15 14 15 13 8 9 11 9 8 8 9 8 8 8 8 7 7 6 6 6 6 7 6 9 11 11 10 11 9 5 6 6 7 8 9 10 10 11 12 14 15 14 16 15 20 26 28 26 17 18 19 20 19 18 16
15 14 10 8 7 7 6 9 9 10 11 9 11 13 13 13 12 12 14 14 15 16 16 16 17 16 17 16 17 18 18 17 16 14 12 11 9 8 9 10 10 10 9 8 7 5 5 5 7 7 7 6 5 8 11 11 10 11 9 6 5 6 8 8 9 9 10 10 13 21 20 16 15 16 24 28 28 23 17 17 18 19 21 20 17
14 14 13 9 8 8 7 6 7 8 7 9 12 12 12 12 12 13 13 15 16 16 16 18 17 16 16 16 16 17 18 19 14 12 10 12 11 10 9 7 6 6 7 7 6 6 6 5 6 6 9 9 6 8 12 11 10 9 8 5 6 6 8 8 9 10 9 9 9 11 19 19 18 21 28 26 29 25 17 16 16 17 18 19 16
12 10 9 7 5 5 5 7 10 12 9 11 11 12 13 13 13 12 14 16 18 18 14 12 13 14 14 14 15 16 15 16 17 14 8 9 9 9 9 9 7 6 6 6 5 5 5 4 4 4 4 6 7 6 8 11 9 9 10 6 4 6 8 9 10 9 9 8 9 10 12 18 23 25 26 29 29 29 20 16 15 14 16 20 17
10 10 5 6 8 11 12 14 11 9 10 10 11 12 12 11 12 13 17 18 13 11 13 14 13 14 14 15 13 15 17 14 16 16 9 9 8 10 10 9 10 8 7 7 7 5 4 4 4 5 5 7 8 7 8 10 8 8 10 9 5 7 8 9 8 8 8 9 10 11 10 17 24 26 27 29 28 27 25 18 15 14 16 21 26
3 0 4 5 5 6 5 3 4 10 10 11 12 13 11 11 12 17 18 8 11 12 13 14 15 14 14 13 14 12 14 14 13 15 12 9 8 8 9 9 7 9 10 7 6 5 4 4 5 6 6 6 8 10 4 5 7 9 9 11 7 6 9 8 8 8 9 9 11 12 11 17 26 27 26 26 27 25 27 16 16 25 31 32 24
6 5 2 2 3 4 7 6 4 7 8 10 12 13 11 11 15 14 8 10 11 12 13 14 14 15 14 14 14 16 13 12 14 14 16 12 9 9 9 8 11 8 9 8 7 6 6 5 4 3 4 6 5 3 6 4 7 9 9 11 13 11 15 9 7 8 9 10 11 12 13 23 27 27 26 26 25 28 22 17 27 29 29 32 26
5 5 5 3 3 3 5 7 4 1 2 5 11 12 10 12 14 7 10 10 12 13 14 15 15 16 16 14 14 14 12 13 14 12 10 11 10 7 7 6 6 7 7 7 6 6 6 5 4 4 4 3 2 2 5 7 6 8 10 11 12 13 14 8 8 7 9 11 11 12 15 26 24 25 25 25 25 23 18 26 28 29 29 26 15
5 2 0 1 2 3 1 1 1 2 3 5 5 10 10 14 9 11 13 14 14 15 16 16 16 16 16 15 14 14 14 14 13 15 13 8 10 9 8 6 7 8 7 7 7 7 6 5 5 5 3 3 3 2 3 6 8 8 9 10 12 13 13 14 8 5 9 10 15 23 24 22 22 22 24 23 19 20 24 25 27 28 26 13 13
4 2 1 4 4 4 3 5 4 5 6 7 10 10 14 14 8 11 12 14 16 16 16 17 15 15 16 18 19 14 14 14 14 6 7 10 12 10 8 9 7 7 8 8 8 7 6 6 5 4 4 3 2 2 3 4 6 9 8 9 11 12 12 12 12 11 16 15 17 18 20 20 18 17 14 12 13 15 23 25 25 24 13 12 12
7 6 5 4 5 6 8 9 10 9 10 10 12 12 10 7 13 12 13 14 15 16 16 15 16 15 15 10 12 11 10 9 9 8 6 6 8 8 9 9 8 9 8 8 7 7 7 7 6 5 5 4 3 2 2 4 5 5 4 5 5 6 8 8 7 8 5 6 11 12 12 16 15 20 20 19 18 18 14 13 11 11 11 11 12
7 7 6 6 7 9 10 10 12 11 11 12 12 13 10 9 11 13 14 15 16 17 17 17 17 15 15 14 8 14 14 10 8 9 9 8 6 8 9 10 11 11 10 9 8 9 8 8 7 6 5 4 3 2 4 5 5 4 3 4 4 3 2 1 5 3 4 6 6 9 10 7 8 8 9 7 8 9 10 11 11 11 11 12 15
8 6 8 10 10 11 12 13 14 11 11 12 13 11 9 12 13 14 16 17 16 14 13 15 15 14 14 14 14 9 8 10 10 10 7 8 9 11 9 7 4 5 7 9 9 8 7 6 6 5 5 4 4 5 6 8 4 4 4 2 2 2 1 2 6 10 6 3 3 5 5 7 7 8 9 9 9 10 10 10 12 12 11 11 11
9 7 8 11 11 12 12 14 14 10 11 13 14 11 9 11 13 14 16 18 16 15 15 16 15 15 15 15 13 10 9 10 12 13 11 8 5 7 6 7 7 11 13 12 10 7 7 6 6 4 4 4 4 5 8 3 3 4 5 6 7 6 7 6 9 11 7 2 4 4 6 7 9 9 10 10 11 11 12 12 11 14 13 11 12
12 9 8 10 12 12 12 13 12 8 11 13 12 11 11 13 15 16 18 18 18 16 15 15 15 15 17 16 9 10 9 15 15 17 14 12 10 8 11 13 11 13 14 15 13 13 14 12 8 3 4 10 8 6 1 1 3 5 5 6 6 7 8 9 11 7 5 4 5 6 7 7 7 8 9 10 11 11 12 12 13 12 12 13 14
Wind_Direction
182 183 177 180 181 177 164 156 155 157 155 154 159 160 158 162 159 165 163 160 156 158 162 160 158 152 149 168 169 167 166 154 159 162 160 151 144 149 154 141 128 128 140 149 159 146 142 141 140 151 151 156 170 213 229 284 305 310 302 296 298 303 301 293 289 310 311 296 273 282 293 282 276 276 272 272 275 275 273 287 286 294 294 296 287
132 141 162 166 164 159 151 152 152 159 164 157 165 163 163 165 166 165 164 166 168 169 165 168 172 172 167 173 165 168 163 166 172 167 166 145 149 146 150 142 132 145 156 157 151 143 141 141 146 153 137 147 180 192 283 281 286 275 262 287 237 272 294 320 312 327 303 310 325 318 303 272 255 257 259 268 298 300 304 296 296 301 299 295 292
150 154 156 163 159 158 155 158 167 166 162 164 165 161 166 168 170 168 172 170 172 168 168 172 170 165 164 164 164 159 153 155 156 161 143 142 150 150 158 142 144 155 153 153 152 155 154 143 150 145 135 133 40 333 276 273 252 265 255 251 304 282 276 296 297 305 287 321 305 292 311 327 324 273 327 12 325 306 299 296 297 295 290 297 307
165 165 166 162 162 162 158 163 167 163 162 166 169 167 168 173 174 174 176 173 171 173 171 168 165 158 154 155 151 148 154 149 139 141 140 143 162 162 161 150 156 166 161 155 152 154 157 160 141 115 117 111 160 255 262 258 260 266 271 271 254 297 304 288 298 327 328 329 330 352 305 306 321 216 335 302 280 280 273 276 276 284 299 300 300
165 165 164 159 167 177 175 169 165 171 174 175 173 174 177 179 178 177 177 176 173 170 168 160 145 127 114 96 101 98 95 120 127 149 163 164 158 166 172 160 162 159 155 159 158 161 155 147 137 136 126 128 118 254 262 248 243 244 256 274 268 251 284 279 290 326 306 284 266 323 327 318 274 314 328 299 194 342 267 282 280 284 279 280 292
174 177 176 175 174 170 170 170 176 180 182 182 178 178 175 179 177 177 176 175 174 170 167 159 157 151 146 144 148 151 161 166 177 177 177 179 180 163 164 163 158 157 159 161 157 153 153 143 135 139 149 178 189 213 229 248 255 253 245 241 258 241 240 282 289 307 287 291 264 219 217 264 311 311 345 305 284 234 270 214 271 267 277 303 299
185 175 165 162 176 174 182 184 186 185 190 177 178 182 178 178 177 178 177 177 174 171 168 159 160 167 169 169 169 172 172 192 179 170 168 168 160 163 162 158 159 157 161 159 161 159 153 150 147 150 155 171 212 217 240 244 247 247 254 252 242 239 274 279 279 290 312 279 270 266 265 275 285 312 303 314 315 318 176 308 286 276 295 293 282
179 181 177 178 178 181 187 191 187 193 179 178 181 181 181 180 178 179 177 177 175 171 171 170 168 171 172 175 175 178 180 175 176 174 164 158 159 157 155 160 162 162 162 167 163 159 154 154 154 155 163 195 208 221 222 232 242 269 261 254 263 242 237 252 269 265 264 281 295 297 297 301 306 296 281 282 298 307 307 280 215 268 295 261 303
176 175 179 179 185 191 189 190 195 180 179 184 185 184 180 179 178 175 178 177 177 176 172 176 175 176 176 174 179 187 171 167 162 154 151 151 147 153 156 162 164 165 165 162 162 159 157 160 155 156 168 200 207 225 231 230 232 242 264 274 264 267 236 240 260 267 274 278 312 297 314 300 307 295 300 298 284 302 292 300 308 285 255 278 295
183 179 179 186 188 189 189 182 175 190 186 182 180 176 181 178 180 180 182 181 177 177 174 177 178 173 180 183 179 175 166 152 151 152 149 151 152 161 161 161 163 163 165 162 158 162 159 154 153 161 178 196 209 223 234 248 255 252 250 250 249 252 247 253 255 263 259 275 275 288 295 304 305 292 273 275 280 247 276 300 307 313 314 300 268
181 181 182 184 182 176 166 177 185 179 182 178 182 184 181 184 183 186 185 177 175 178 176 181 181 182 185 184 180 172 165 156 153 159 154 154 162 166 168 169 165 166 162 168 165 164 162 154 154 166 176 188 200 211 230 232 243 244 237 234 236 232 239 241 255 256 255 257 257 248 241 241 242 264 266 268 272 278 293 285 293 299 296 301 302
173 171 175 168 162 170 170 179 178 181 176 182 186 185 185 187 184 185 184 182 175 177 178 183 185 188 186 182 180 176 167 168 168 168 171 169 169 168 166 162 167 160 160 161 169 163 155 156 158 164 179 191 205 208 219 223 229 232 255 261 265 260 248 246 242 247 247 244 242 234 243 243 250 254 261 261 256 267 274 283 290 302 298 284 287
166 174 170 172 176 177 182 181 174 180 186 186 187 187 188 187 187 185 190 181 179 177 182 184 185 189 186 183 183 177 178 174 172 170 171 170 166 165 166 168 162 160 167 162 167 159 154 155 160 172 186 196 201 201 204 205 219 251 250 255 248 246 241 239 243 246 244 250 252 252 260 257 260 256 266 264 263 276 276 284 283 287 285 297 300
176 174 177 180 183 187 185 181 183 183 186 187 186 187 188 191 190 190 193 183 176 180 183 184 189 186 183 181 182 178 181 176 178 172 172 170 168 168 168 168 168 170 165 171 164 155 153 158 164 172 176 183 190 209 227 232 233 235 239 242 242 241 241 245 248 251 252 254 253 262 250 256 256 255 258 257 263 269 266 266 287 287 281 285 293
171 176 183 186 190 187 185 185 185 187 185 185 186 189 187 193 192 194 188 188 184 185 183 188 187 184 182 179 179 179 177 176 175 172 167 166 167 162 164 162 161 165 162 156 143 143 147 146 155 166 182 192 193 196 195 204 211 223 226 228 238 229 232 239 248 248 256 256 257 251 257 249 249 251 248 254 256 254 259 268 276 291 295 287 287
179 180 185 189 187 190 194 193 192 187 187 187 188 187 191 197 196 195 191 188 186 182 189 188 186 182 180 178 180 175 170 166 167 167 167 163 162 162 164 162 158 151 149 142 144 143 149 155 163 177 185 194 197 193 199 202 215 224 239 241 251 243 242 250 254 257 259 259 259 256 257 254 250 251 250 256 254 254 260 264 265 271 283 293 299
183 186 190 184 176 194 200 200 197 193 190 192 191 190 194 194 196 197 195 190 190 191 188 186 182 181 186 181 176 177 174 175 175 171 166 161 156 159 159 159 151 149 148 144 144 147 155 158 169 178 188 190 188 190 193 202 210 220 233 247 257 256 251 251 256 255 260 265 263 262 258 262 257 254 255 255 254 258 257 257 252 256 261 271 287
193 192 191 190 191 194 199 203 204 204 200 196 197 194 195 196 197 195 190 191 195 190 188 185 185 186 183 185 184 182 178 176 170 168 163 155 155 152 149 152 162 157 149 149 146 152 154 159 162 173 178 185 190 198 201 210 213 229 231 243 243 245 256 260 258 259 265 262 262 263 258 265 264 261 261 257 253 254 257 254 255 253 250 256 265
179 187 188 193 195 200 201 203 204 204 205 208 206 198 197 198 201 200 198 196 191 188 187 185 187 189 188 187 184 182 178 173 169 162 160 162 162 160 160 160 151 152 148 148 152 156 155 161 162 180 186 192 191 196 196 201 214 231 240 245 251 249 255 264 257 259 264 262 267 266 268 267 270 272 268 265 264 262 262 261 257 256 253 253 261
193 193 198 201 202 203 202 199 197 200 199 199 200 201 205 202 195 202 204 195 184 188 187 189 191 185 186 181 187 183 178 173 169 164 166 167 166 161 158 158 163 154 153 149 154 157 160 169 177 178 187 185 189 190 185 202 216 226 234 251 257 252 261 264 275 272 276 274 274 274 274 275 279 279 274 271 268 263 263 264 264 262 261 258 259
202 199 203 210 213 210 202 198 204 201 200 199 200 205 208 200 203 199 195 193 191 192 186 194 183 189 180 185 184 179 178 171 166 169 166 167 164 162 163 159 145 158 152 155 159 163 165 171 174 177 181 188 183 193 191 198 207 220 231 237 249 258 265 268 273 272 270 279 281 282 280 281 289 286 287 289 287 288 289 285 284 281 276 269 262
208 208 202 204 211 208 207 207 207 194 198 199 202 197 204 208 208 204 200 199 195 188 192 190 187 186 185 183 180 176 173 171 167 167 166 165 163 162 158 151 156 156 153 156 159 159 165 170 174 183 185 185 191 190 200 194 211 221 240 229 237 244 254 266 267 271 274 273 280 279 280 285 290 287 291 286 286 286 284 283 279 278 274 275 279
210 209 206 206 201 196 191 192 197 205 211 202 191 198 203 202 200 204 202 204 196 194 190 185 186 186 186 179 172 176 173 172 170 169 167 165 163 159 156 153 152 154 150 155 158 159 165 169 176 183 185 192 195 199 198 198 205 212 230 242 245 243 255 263 267 270 274 277 277 275 279 286 287 286 282 281 282 279 278 275 274 272 274 275 279
235 221 211 202 191 183 191 198 199 199 199 203 209 209 203 200 202 201 207 205 196 189 186 185 188 188 180 173 177 174 172 175 175 173 168 166 161 157 152 149 148 147 151 152 153 159 161 174 182 187 189 193 194 197 199 197 200 209 233 249 249 254 260 262 266 269 272 274 273 277 274 275 276 275 275 274 271 269 270 269 270 267 268 271 269
254 233 218 194 177 183 194 201 205 205 205 202 200 202 204 206 199 202 209 205 196 188 185 188 185 182 180 178 176 173 177 178 177 172 169 162 159 153 151 149 144 147 146 143 150 155 165 176 188 190 197 197 197 197 199 195 198 201 222 239 247 252 256 260 263 266 271 269 268 266 271 272 273 271 271 269 270 267 263 264 264 264 262 271 269
241 240 203 193 201 202 203 203 207 208 204 201 203 207 208 208 211 207 202 196 197 188 189 185 183 180 183 180 177 176 181 180 175 171 167 162 154 151 145 141 143 141 138 148 157 169 176 186 184 193 191 193 189 186 186 198 206 225 234 238 246 251 255 260 262 266 264 263 264 263 265 265 265 266 269 267 265 265 263 259 257 259 257 254 252
235 227 221 216 200 207 209 208 209 208 205 206 203 202 200 202 207 203 201 194 193 187 186 185 185 185 181 183 180 182 179 177 174 167 160 156 153 146 142 144 142 143 149 154 164 164 173 174 185 175 186 183 193 189 197 210 215 216 224 236 249 253 257 256 258 258 257 256 258 261 263 262 261 261 263 265 264 259 260 258 258 261 262 259 265
243 244 229 213 216 214 214 215 213 213 207 205 206 202 198 197 200 195 191 188 186 185 184 185 183 186 188 185 183 174 172 171 165 159 158 153 145 141 137 132 133 144 151 158 164 164 156 149 174 167 190 186 197 209 213 212 216 213 219 233 234 247 253 258 260 262 261 261 258 257 254 254 256 256 256 258 262 269 268 270 264 261 259 261 257
230 231 228 225 225 221 220 221 219 211 205 206 203 200 195 198 194 189 190 191 177 177 182 184 187 190 190 180 168 166 163 162 161 155 151 148 141 136 133 132 134 139 137 140 135 138 149 147 150 166 201 208 205 224 219 219 215 220 209 221 235 246 254 260 262 260 260 263 264 263 263 256 259 265 269 273 272 269 267 267 256 226 239 247 255
230 230 232 227 227 228 226 221 217 208 209 205 201 199 197 195 195 189 188 183 169 183 183 186 189 189 177 167 165 162 162 159 156 155 150 143 140 137 135 133 128 128 128 133 137 137 144 163 179 202 210 223 230 228 234 233 224 198 205 219 237 240 244 249 260 269 269 263 264 264 265 271 279 282 284 284 285 284 281 280 281 280 278 272 260
218 229 234 230 229 231 230 223 219 211 210 206 204 201 197 194 190 187 186 182 177 178 184 184 186 176 168 162 163 164 158 161 155 148 146 142 139 136 131 129 129 133 135 134 139 153 162 175 187 203 214 219 227 233 238 240 241 238 227 221 242 256 259 264 260 259 268 276 275 276 273 269 273 278 279 277 282 284 283 281 283 283 280 277 279
254 232 227 232 229 227 227 223 219 215 212 208 204 197 187 195 189 188 182 167 173 178 179 182 176 168 167 167 166 159 159 158 152 152 148 141 134 135 133 123 128 131 137 135 148 165 169 179 190 202 213 221 232 242 246 249 249 249 251 252 255 255 252 249 270 274 277 278 282 281 278 275 270 268 272 277 281 278 280 284 283 283 282 281 277
253 245 229 229 229 225 222 223 220 216 211 209 200 188 192 194 187 180 155 168 176 177 176 175 174 171 171 167 161 160 160 158 158 151 146 142 141 131 121 131 137 131 133 147 162 165 177 183 193 199 211 222 231 247 254 256 257 258 259 261 260 259 265 258 264 273 279 283 284 281 280 273 264 271 276 270 269 274 276 276 280 281 280 275 275
239 238 232 225 226 231 226 218 215 214 211 207 188 191 196 179 164 155 166 171 171 177 175 175 171 172 169 165 163 162 161 158 152 147 145 132 127 123 119 115 124 135 148 155 162 167 174 184 191 199 213 230 238 247 257 259 260 261 263 267 266 265 261 265 280 285 280 278 275 276 276 275 272 272 272 275 277 276 278 278 275 267 255 263 267
257 252 239 232 226 227 235 234 226 219 208 168 178 181 149 151 160 164 168 167 174 170 173 172 172 171 166 165 164 163 159 153 151 149 145 136 130 129 139 147 151 156 157 161 164 168 178 175 186 195 205 235 241 250 255 258 260 265 269 275 272 283 293 283 276 278 277 274 280 280 277 279 286 282 276 276 285 286 286 289 289 288 281 260 244
259 252 248 243 229 227 227 231 218 179 177 175 178 164 159 167 160 164 166 169 169 171 174 172 174 172 170 168 165 162 157 154 150 136 128 137 136 142 144 144 141 138 142 145 156 163 173 179 181 175 202 233 241 250 258 259 264 268 274 275 279 279 268 266 264 269 272 280 279 277 282 282 281 277 286 291 295 301 301 300 298 294 289 281 270
272 265 255 248 227 219 226 208 171 178 169 182 165 160 157 152 162 169 166 168 168 175 179 177 176 173 172 169 167 160 157 156 141 134 135 135 142 138 136 139 140 148 153 161 165 167 171 172 179 184 202 231 239 251 259 262 261 268 277 268 260 260 266 267 268 268 271 271 274 278 280 287 294 293 302 307 308 308 304 301 294 291 288 284 280
263 263 255 244 228 215 206 179 178 183 186 166 159 158 157 162 167 164 167 172 175 184 181 178 178 174 171 169 166 161 159 159 157 152 149 148 138 135 145 153 150 152 158 159 157 151 167 176 187 191 202 221 232 250 256 258 262 265 272 271 273 269 268 272 273 269 270 273 275 288 300 299 303 307 309 310 311 310 299 297 297 294 293 290 286
241 244 249 234 216 194 181 168 166 185 186 163 157 155 155 168 169 171 173 175 187 185 182 181 176 170 168 166 166 165 163 162 157 149 142 141 145 146 143 137 134 130 140 147 153 160 172 185 192 191 214 227 231 240 252 255 260 267 274 265 263 268 272 276 280 279 276 275 278 292 302 307 309 306 310 312 311 311 306 305 302 298 294 293 296
240 242 231 218 169 118 150 173 189 198 166 160 156 159 168 170 176 169 177 189 193 189 176 165 161 163 163 164 166 165 163 160 158 130 136 130 131 129 138 139 140 137 141 142 148 159 172 181 184 189 214 231 239 235 240 249 258 270 279 278 263 274 280 279 282 284 294 295 299 303 309 309 308 311 312 313 315 316 315 309 306 304 303 301 302
231 235 194 161 177 183 188 196 198 166 160 160 157 158 177 177 170 175 194 199 182 160 161 161 158 159 163 164 164 166 161 160 156 147 130 131 139 141 138 141 143 144 141 145 154 158 162 181 195 213 210 222 221 228 242 250 266 278 281 287 275 274 276 281 286 302 304 311 315 312 307 305 310 314 317 318 319 318 317 315 314 306 298 297 303
317 319 164 171 169 196 207 204 170 164 161 161 161 173 176 173 175 197 202 157 154 159 154 155 158 159 159 160 162 162 158 151 149 144 135 134 140 134 136 132 133 145 146 137 141 155 173 196 206 208 211 216 232 230 218 257 273 277 283 293 291 274 290 301 309 306 312 317 313 308 300 309 317 321 324 324 322 320 320 323 309 305 308 311 312
308 318 335 114 159 201 220 215 166 163 165 171 167 174 181 178 196 203 150 150 151 152 152 152 153 156 159 158 159 158 156 154 151 153 146 137 137 130 130 134 143 131 136 143 154 167 179 192 193 203 214 218 212 217 250 255 269 281 289 296 299 303 312 315 315 317 320 314 308 303 301 315 323 326 326 326 326 324 323 312 312 315 316 318 320
335 359 11 359 322 336 351 3 11 3 184 174 177 182 184 189 206 142 145 142 150 151 152 154 158 159 156 158 156 154 151 154 141 147 137 118 129 122 127 136 121 129 137 144 157 171 179 173 182 204 207 185 196 181 248 268 273 285 296 301 307 312 315 324 322 323 316 310 307 310 320 325 326 328 330 331 329 325 319 317 319 320 322 323 315
332 305 103 136 210 255 273 204 146 190 207 193 195 193 191 205 190 149 155 157 156 156 157 162 162 161 159 149 150 153 153 156 147 136 125 123 126 135 132 140 140 147 147 150 163 166 166 170 178 190 190 182 182 207 231 265 284 291 299 305 312 315 321 323 326 317 309 303 317 324 326 328 331 334 335 335 331 325 322 322 322 323 325 315 312
303 299 159 187 194 221 214 216 203 190 201 206 208 198 201 210 150 160 159 157 156 158 163 164 161 159 155 137 135 138 139 141 139 126 124 145 146 151 144 146 148 150 157 158 160 156 161 172 178 179 181 181 191 206 239 256 264 273 281 308 316 322 320 324 328 318 309 330 336 332 331 333 336 335 335 332 328 325 325 325 324 323 316 311 308
285 253 186 185 190 210 221 217 224 205 202 211 208 211 209 144 168 161 159 157 161 163 163 163 162 158 153 147 144 147 144 142 139 131 122 121 136 137 137 142 149 154 158 161 157 157 167 173 173 178 170 183 196 212 235 257 258 254 250 271 304 296 316 329 325 286 334 6 336 334 332 335 334 332 331 326 322 320 318 317 313 311 310 308 307
245 237 199 205 201 213 222 219 227 220 202 211 213 213 191 162 160 162 156 157 163 170 169 169 164 159 160 162 141 144 143 143 145 142 139 143 140 148 148 156 163 164 160 164 164 168 173 170 167 168 165 180 203 199 233 250 256 240 245 262 266 268 277 304 292 308 42 354 331 321 330 321 320 320 320 310 308 312 314 315 313 312 309 309 313
265 227 201 206 214 219 222 220 227 217 198 208 215 209 179 167 165 161 161 163 169 168 165 161 161 158 161 163 159 154 143 140 137 148 142 147 152 162 156 148 149 150 162 157 162 164 161 159 152 160 162 174 181 214 235 250 262 310 317 324 296 294 285 244 325 359 27 334 308 326 320 328 329 328 322 319 316 318 318 317 314 312 314 314 313
272 254 224 228 229 226 227 227 233 214 196 208 211 198 178 169 162 166 164 167 164 162 164 169 170 169 162 161 161 153 144 133 145 146 140 128 117 133 135 140 144 161 161 158 155 158 155 153 152 169 163 174 187 225 251 295 333 335 347 357 4 5 5 7 12 16 10 333 336 335 330 335 332 330 325 321 324 323 323 323 320 320 318 315 317
285 276 249 234 235 229 232 238 237 202 202 208 204 191 177 173 170 171 171 170 163 166 172 172 172 178 173 165 144 144 148 140 132 136 141 139 136 147 151 146 150 160 161 161 160 163 164 163 160 164 200 192 215 237 247 24 27 21 10 21 25 26 19 26 24 29 4 360 346 342 335 333 326 322 317 319 321 322 323 322 321 320 316 317 318